Time,TemperatureF,DewpointF,PressureIn,WindDirection,WindDirectionDegrees,WindSpeedMPH,WindSpeedGustMPH,Humidity,HourlyPrecipIn,Conditions,Clouds,dailyrainin,SoftwareType,DateUTC
2013-08-01 00:02:00,85.1,69.1,29.90,SE,127,0.0,0.0,59,0.00,,,0.00,meteohub,2013-08-01 05:02:00,
2013-08-01 00:07:00,84.9,68.9,29.90,SE,127,0.0,0.0,59,0.00,,,0.00,meteohub,2013-08-01 05:07:00,
2013-08-01 00:12:00,84.7,69.3,29.90,SE,127,0.0,0.0,60,0.00,,,0.00,meteohub,2013-08-01 05:12:00,
2013-08-01 00:17:00,84.4,69.4,29.90,SE,127,0.0,0.0,61,0.00,,,0.00,meteohub,2013-08-01 05:17:00,
2013-08-01 00:22:00,84.2,69.8,29.90,SE,127,0.0,0.0,62,0.00,,,0.00,meteohub,2013-08-01 05:22:00,
2013-08-01 00:27:00,83.8,69.4,29.90,SE,127,0.0,0.0,62,0.00,,,0.00,meteohub,2013-08-01 05:27:00,
2013-08-01 00:33:00,83.7,69.8,29.90,SE,126,0.0,0.0,63,0.00,,,0.00,meteohub,2013-08-01 05:33:00,
2013-08-01 00:38:00,83.3,69.8,29.91,SE,126,0.0,0.0,64,0.00,,,0.00,meteohub,2013-08-01 05:38:00,
2013-08-01 00:43:00,83.1,69.6,29.91,SE,127,0.0,0.0,64,0.00,,,0.00,meteohub,2013-08-01 05:43:00,
2013-08-01 00:48:00,82.9,69.4,29.91,SE,126,0.0,0.0,64,0.00,,,0.00,meteohub,2013-08-01 05:48:00,
2013-08-01 00:53:00,82.8,69.3,29.91,SE,126,0.0,0.0,64,0.00,,,0.00,meteohub,2013-08-01 05:53:00,
2013-08-01 00:58:00,82.6,68.7,29.91,SE,127,0.0,0.0,63,0.00,,,0.00,meteohub,2013-08-01 05:58:00,
2013-08-01 01:03:00,82.6,68.2,29.91,SE,127,0.0,0.0,62,0.00,,,0.00,meteohub,2013-08-01 06:03:00,
2013-08-01 01:08:00,82.6,68.2,29.91,SE,127,0.0,0.0,62,0.00,,,0.00,meteohub,2013-08-01 06:08:00,
2013-08-01 01:13:00,82.8,68.4,29.91,SE,127,0.0,0.0,62,0.00,,,0.00,meteohub,2013-08-01 06:13:00,
2013-08-01 01:18:00,82.8,68.0,29.91,SE,127,0.0,0.0,61,0.00,,,0.00,meteohub,2013-08-01 06:18:00,
2013-08-01 01:23:00,82.8,68.0,29.90,SE,127,0.0,0.0,61,0.00,,,0.00,meteohub,2013-08-01 06:23:00,
2013-08-01 01:28:00,82.8,68.0,29.90,SE,127,0.0,0.0,61,0.00,,,0.00,meteohub,2013-08-01 06:28:00,
2013-08-01 01:33:00,82.6,67.8,29.90,SE,126,0.0,0.0,61,0.00,,,0.00,meteohub,2013-08-01 06:33:00,
2013-08-01 01:38:00,82.6,67.8,29.90,SE,127,0.0,0.0,61,0.00,,,0.00,meteohub,2013-08-01 06:38:00,
2013-08-01 01:43:00,82.6,67.8,29.90,SE,127,0.0,0.0,61,0.00,,,0.00,meteohub,2013-08-01 06:43:00,
2013-08-01 01:48:00,82.4,67.6,29.90,SE,126,0.0,0.0,61,0.00,,,0.00,meteohub,2013-08-01 06:48:00,
2013-08-01 01:53:00,82.2,67.5,29.90,SE,127,0.0,0.0,61,0.00,,,0.00,meteohub,2013-08-01 06:53:00,
2013-08-01 01:58:00,82.2,67.5,29.90,SE,127,0.0,0.0,61,0.00,,,0.00,meteohub,2013-08-01 06:58:00,
2013-08-01 02:03:00,82.0,67.3,29.90,SE,126,0.0,0.0,61,0.00,,,0.00,meteohub,2013-08-01 07:03:00,
2013-08-01 02:08:00,82.0,67.3,29.91,SE,126,0.0,0.0,61,0.00,,,0.00,meteohub,2013-08-01 07:08:00,
2013-08-01 02:13:00,82.0,66.7,29.91,SE,127,0.0,0.0,60,0.00,,,0.00,meteohub,2013-08-01 07:13:00,
2013-08-01 02:18:00,82.0,66.7,29.91,SE,127,0.0,0.0,60,0.00,,,0.00,meteohub,2013-08-01 07:18:00,
2013-08-01 02:23:00,82.0,66.7,29.91,SE,127,0.0,0.0,60,0.00,,,0.00,meteohub,2013-08-01 07:23:00,
2013-08-01 02:28:00,82.0,66.7,29.91,SE,126,0.0,0.0,60,0.00,,,0.00,meteohub,2013-08-01 07:28:00,
2013-08-01 02:33:00,82.0,66.4,29.90,SE,127,0.0,0.0,59,0.00,,,0.00,meteohub,2013-08-01 07:33:00,
2013-08-01 02:38:00,82.0,66.7,29.91,SE,127,0.0,0.0,60,0.00,,,0.00,meteohub,2013-08-01 07:38:00,
2013-08-01 02:39:00,82.0,66.7,29.91,SE,126,0.0,0.0,60,0.00,,,0.00,meteohub,2013-08-01 07:39:00,
2013-08-01 02:44:00,81.9,66.2,29.91,SE,127,0.0,0.0,59,0.00,,,0.00,meteohub,2013-08-01 07:44:00,
2013-08-01 02:49:00,81.9,66.6,29.91,SE,126,0.0,0.0,60,0.00,,,0.00,meteohub,2013-08-01 07:49:00,
2013-08-01 02:57:00,81.7,66.0,29.90,SE,126,0.0,0.0,59,0.00,,,0.00,meteohub,2013-08-01 07:57:00,
2013-08-01 03:02:00,81.5,65.3,29.91,SE,126,0.0,0.0,58,0.00,,,0.00,meteohub,2013-08-01 08:02:00,
2013-08-01 03:07:00,81.5,64.2,29.91,SE,127,0.0,0.0,56,0.00,,,0.00,meteohub,2013-08-01 08:07:00,
2013-08-01 03:12:00,81.5,64.2,29.91,SE,127,0.0,0.0,56,0.00,,,0.00,meteohub,2013-08-01 08:12:00,
2013-08-01 03:17:00,81.5,63.9,29.91,SE,127,0.0,0.0,55,0.00,,,0.00,meteohub,2013-08-01 08:17:00,
2013-08-01 03:23:00,81.5,63.3,29.91,SE,127,0.0,0.0,54,0.00,,,0.00,meteohub,2013-08-01 08:23:00,
2013-08-01 03:29:00,81.7,66.0,29.90,SE,126,0.0,0.0,59,0.00,,,0.00,meteohub,2013-08-01 08:29:00,
2013-08-01 03:37:00,81.3,66.6,29.90,SE,127,0.0,0.0,61,0.00,,,0.00,meteohub,2013-08-01 08:37:00,
2013-08-01 03:42:00,81.1,64.0,29.90,SE,127,0.0,0.0,56,0.00,,,0.00,meteohub,2013-08-01 08:42:00,
2013-08-01 03:47:00,81.1,63.0,29.90,SE,126,0.0,0.0,54,0.00,,,0.00,meteohub,2013-08-01 08:47:00,
2013-08-01 03:52:00,81.1,64.0,29.90,SE,127,0.0,0.0,56,0.00,,,0.00,meteohub,2013-08-01 08:52:00,
2013-08-01 04:00:00,81.1,62.4,29.89,SE,126,0.0,0.0,53,0.00,,,0.00,meteohub,2013-08-01 09:00:00,
2013-08-01 04:05:00,81.1,63.0,29.89,SE,127,0.0,0.0,54,0.00,,,0.00,meteohub,2013-08-01 09:05:00,
2013-08-01 04:10:00,81.1,61.9,29.90,SE,127,0.0,4.0,52,0.00,,,0.00,meteohub,2013-08-01 09:10:00,
2013-08-01 04:16:00,81.1,61.9,29.89,SE,127,0.0,4.0,52,0.00,,,0.00,meteohub,2013-08-01 09:16:00,
2013-08-01 04:22:00,80.8,60.4,29.90,SW,217,2.0,5.0,50,0.00,,,0.00,meteohub,2013-08-01 09:22:00,
2013-08-01 04:27:00,80.8,59.9,29.90,WSW,238,0.0,8.0,49,0.00,,,0.00,meteohub,2013-08-01 09:27:00,
2013-08-01 04:36:00,80.8,59.9,29.90,WSW,237,0.0,8.0,49,0.00,,,0.00,meteohub,2013-08-01 09:36:00,
2013-08-01 04:41:00,81.0,60.1,29.91,SW,235,0.0,9.0,49,0.00,,,0.00,meteohub,2013-08-01 09:41:00,
2013-08-01 04:47:00,80.2,59.4,29.91,WSW,238,0.0,6.0,49,0.00,,,0.00,meteohub,2013-08-01 09:47:00,
2013-08-01 04:55:00,79.9,59.5,29.91,WSW,242,1.0,6.0,50,0.00,,,0.00,meteohub,2013-08-01 09:55:00,
2013-08-01 05:01:00,79.9,59.0,29.91,WSW,242,1.0,6.0,49,0.00,,,0.00,meteohub,2013-08-01 10:01:00,
2013-08-01 05:07:00,79.3,58.5,29.91,WSW,242,0.0,6.0,49,0.00,,,0.00,meteohub,2013-08-01 10:07:00,
2013-08-01 05:12:00,79.3,58.5,29.91,WSW,240,0.0,6.0,49,0.00,,,0.00,meteohub,2013-08-01 10:12:00,
2013-08-01 05:18:00,79.3,58.5,29.91,WSW,240,0.0,6.0,49,0.00,,,0.00,meteohub,2013-08-01 10:18:00,
2013-08-01 05:27:00,78.8,59.2,29.91,WSW,245,0.0,4.0,51,0.00,,,0.00,meteohub,2013-08-01 10:27:00,
2013-08-01 05:32:00,78.6,59.0,29.92,WSW,245,0.0,4.0,51,0.00,,,0.00,meteohub,2013-08-01 10:32:00,
2013-08-01 05:39:00,78.6,59.0,29.91,WSW,245,0.0,0.0,51,0.00,,,0.00,meteohub,2013-08-01 10:39:00,
2013-08-01 05:47:00,78.3,59.2,29.92,WSW,245,0.0,0.0,52,0.00,,,0.00,meteohub,2013-08-01 10:47:00,
2013-08-01 05:53:00,78.3,59.2,29.92,WSW,245,0.0,0.0,52,0.00,,,0.00,meteohub,2013-08-01 10:53:00,
2013-08-01 06:01:00,78.3,59.7,29.92,WSW,245,0.0,0.0,53,0.00,,,0.00,meteohub,2013-08-01 11:01:00,
2013-08-01 06:10:00,77.7,60.8,29.93,WSW,245,0.0,0.0,56,0.00,,,0.00,meteohub,2013-08-01 11:10:00,
2013-08-01 06:16:00,77.5,61.5,29.92,WSW,245,0.0,0.0,58,0.00,,,0.00,meteohub,2013-08-01 11:16:00,
2013-08-01 06:23:00,77.2,61.7,29.92,WSW,245,0.0,0.0,59,0.00,,,0.00,meteohub,2013-08-01 11:23:00,
2013-08-01 06:32:00,77.2,61.7,29.92,WSW,245,0.0,0.0,59,0.00,,,0.00,meteohub,2013-08-01 11:32:00,
2013-08-01 06:37:00,77.0,62.6,29.92,WSW,245,0.0,0.0,61,0.00,,,0.00,meteohub,2013-08-01 11:37:00,
2013-08-01 06:45:00,76.6,62.6,29.93,WSW,245,0.0,0.0,62,0.00,,,0.00,meteohub,2013-08-01 11:45:00,
2013-08-01 06:50:00,75.9,62.8,29.93,WSW,245,0.0,0.0,64,0.00,,,0.00,meteohub,2013-08-01 11:50:00,
2013-08-01 06:55:00,75.7,63.1,29.93,WSW,245,0.0,0.0,65,0.00,,,0.00,meteohub,2013-08-01 11:55:00,
2013-08-01 07:04:00,75.4,63.7,29.93,WSW,245,0.0,0.0,67,0.00,,,0.00,meteohub,2013-08-01 12:04:00,
2013-08-01 07:10:00,75.0,63.7,29.93,WSW,245,0.0,0.0,68,0.00,,,0.00,meteohub,2013-08-01 12:10:00,
2013-08-01 07:16:00,75.0,63.7,29.93,WSW,245,0.0,0.0,68,0.00,,,0.00,meteohub,2013-08-01 12:16:00,
2013-08-01 07:22:00,75.4,63.7,29.93,WSW,245,0.0,0.0,67,0.00,,,0.00,meteohub,2013-08-01 12:22:00,
2013-08-01 07:27:00,75.4,63.7,29.94,WSW,245,0.0,0.0,67,0.00,,,0.00,meteohub,2013-08-01 12:27:00,
2013-08-01 07:32:00,75.4,63.7,29.94,WSW,245,0.0,0.0,67,0.00,,,0.00,meteohub,2013-08-01 12:32:00,
2013-08-01 07:38:00,75.4,63.7,29.93,WSW,245,0.0,0.0,67,0.00,,,0.00,meteohub,2013-08-01 12:38:00,
2013-08-01 07:44:00,75.4,61.9,29.94,WSW,245,0.0,0.0,63,0.00,,,0.00,meteohub,2013-08-01 12:44:00,
2013-08-01 07:50:00,75.4,61.9,29.94,WSW,245,0.0,0.0,63,0.00,,,0.00,meteohub,2013-08-01 12:50:00,
2013-08-01 07:55:00,75.6,62.1,29.94,West,259,0.0,0.0,63,0.00,,,0.00,meteohub,2013-08-01 12:55:00,
2013-08-01 08:02:00,75.7,61.3,29.94,West,259,0.0,0.0,61,0.00,,,0.00,meteohub,2013-08-01 13:02:00,
2013-08-01 08:07:00,75.9,61.5,29.94,West,259,0.0,1.0,61,0.00,,,0.00,meteohub,2013-08-01 13:07:00,
2013-08-01 08:13:00,76.1,61.7,29.94,West,259,0.0,1.0,61,0.00,,,0.00,meteohub,2013-08-01 13:13:00,
2013-08-01 08:20:00,76.5,61.5,29.95,West,259,0.0,1.0,60,0.00,,,0.00,meteohub,2013-08-01 13:20:00,
2013-08-01 08:25:00,77.2,62.2,29.94,West,259,0.0,1.0,60,0.00,,,0.00,meteohub,2013-08-01 13:25:00,
2013-08-01 08:32:00,77.4,61.9,29.95,West,259,0.0,0.0,59,0.00,,,0.00,meteohub,2013-08-01 13:32:00,
2013-08-01 08:37:00,77.7,63.1,29.95,West,259,0.0,1.0,61,0.00,,,0.00,meteohub,2013-08-01 13:37:00,
2013-08-01 08:42:00,78.4,63.9,29.95,West,259,0.0,1.0,61,0.00,,,0.00,meteohub,2013-08-01 13:42:00,
2013-08-01 08:47:00,79.0,63.5,29.95,West,259,0.0,0.0,59,0.00,,,0.00,meteohub,2013-08-01 13:47:00,
2013-08-01 08:52:00,79.5,63.9,29.95,West,259,0.0,0.0,59,0.00,,,0.00,meteohub,2013-08-01 13:52:00,
2013-08-01 08:57:00,80.1,63.9,29.95,West,259,0.0,0.0,58,0.00,,,0.00,meteohub,2013-08-01 13:57:00,
2013-08-01 09:05:00,80.8,64.0,29.96,West,259,3.0,0.0,57,0.00,,,0.00,meteohub,2013-08-01 14:05:00,
2013-08-01 09:12:00,81.7,64.4,29.96,West,259,0.0,3.0,56,0.00,,,0.00,meteohub,2013-08-01 14:12:00,
2013-08-01 09:17:00,82.4,64.0,29.95,West,259,0.0,3.0,54,0.00,,,0.00,meteohub,2013-08-01 14:17:00,
2013-08-01 09:22:00,83.1,63.7,29.96,WSW,250,0.0,3.0,52,0.00,,,0.00,meteohub,2013-08-01 14:22:00,
2013-08-01 09:27:00,83.8,63.1,29.96,WSW,241,4.0,6.0,50,0.00,,,0.00,meteohub,2013-08-01 14:27:00,
2013-08-01 09:32:00,84.2,63.0,29.96,WSW,240,4.0,6.0,49,0.00,,,0.00,meteohub,2013-08-01 14:32:00,
2013-08-01 09:37:00,84.6,62.8,29.96,WSW,240,6.0,10.0,48,0.00,,,0.00,meteohub,2013-08-01 14:37:00,
2013-08-01 09:42:00,84.7,62.2,29.96,WSW,252,5.0,10.0,47,0.00,,,0.00,meteohub,2013-08-01 14:42:00,
2013-08-01 09:47:00,85.3,62.8,29.96,SW,225,6.0,13.0,47,0.00,,,0.00,meteohub,2013-08-01 14:47:00,
2013-08-01 09:52:00,85.8,63.3,29.96,WSW,241,2.0,13.0,47,0.00,,,0.00,meteohub,2013-08-01 14:52:00,
2013-08-01 10:00:00,86.4,63.1,29.96,SW,226,8.0,13.0,46,0.00,,,0.00,meteohub,2013-08-01 15:00:00,
2013-08-01 10:07:00,87.3,63.3,29.95,SSW,211,2.0,16.0,45,0.00,,,0.00,meteohub,2013-08-01 15:07:00,
2013-08-01 10:12:00,87.4,64.0,29.95,SW,229,13.0,14.0,46,0.00,,,0.00,meteohub,2013-08-01 15:12:00,
2013-08-01 10:17:00,87.3,63.3,29.95,SW,234,6.0,16.0,45,0.00,,,0.00,meteohub,2013-08-01 15:17:00,
2013-08-01 10:24:00,87.8,65.1,29.95,WSW,257,12.0,14.0,47,0.00,,,0.00,meteohub,2013-08-01 15:24:00,
2013-08-01 10:29:00,88.2,65.3,29.95,SW,232,4.0,17.0,47,0.00,,,0.00,meteohub,2013-08-01 15:29:00,
2013-08-01 10:36:00,88.3,65.5,29.95,SSW,213,1.0,18.0,47,0.00,,,0.00,meteohub,2013-08-01 15:36:00,
2013-08-01 10:41:00,89.1,65.7,29.95,SW,229,3.0,17.0,46,0.00,,,0.00,meteohub,2013-08-01 15:41:00,
2013-08-01 10:46:00,89.4,65.3,29.95,WSW,249,3.0,17.0,45,0.00,,,0.00,meteohub,2013-08-01 15:46:00,
2013-08-01 10:49:00,89.6,66.0,29.95,West,262,4.0,17.0,46,0.00,,,0.00,meteohub,2013-08-01 15:49:00,
2013-08-01 10:52:00,89.8,65.7,29.95,WSW,243,8.0,17.0,45,0.00,,,0.00,meteohub,2013-08-01 15:52:00,
2013-08-01 11:00:00,90.1,65.8,29.95,WSW,243,6.0,15.0,45,0.00,,,0.00,meteohub,2013-08-01 16:00:00,
2013-08-01 11:05:00,90.9,65.3,29.95,West,272,8.0,13.0,43,0.00,,,0.00,meteohub,2013-08-01 16:05:00,
2013-08-01 11:11:00,91.2,65.7,29.95,WNW,285,5.0,13.0,43,0.00,,,0.00,meteohub,2013-08-01 16:11:00,
2013-08-01 11:17:00,91.8,64.8,29.95,WSW,239,8.0,17.0,41,0.00,,,0.00,meteohub,2013-08-01 16:17:00,
2013-08-01 11:22:00,92.1,64.9,29.95,West,275,6.0,17.0,41,0.00,,,0.00,meteohub,2013-08-01 16:22:00,
2013-08-01 11:27:00,92.5,64.6,29.95,SW,228,8.0,15.0,40,0.00,,,0.00,meteohub,2013-08-01 16:27:00,
2013-08-01 11:35:00,92.8,64.9,29.95,WNW,297,8.0,15.0,40,0.00,,,0.00,meteohub,2013-08-01 16:35:00,
2013-08-01 11:38:00,92.8,64.9,29.94,WNW,286,6.0,14.0,40,0.00,,,0.00,meteohub,2013-08-01 16:38:00,
2013-08-01 11:40:00,92.8,64.9,29.95,West,274,9.0,14.0,40,0.00,,,0.00,meteohub,2013-08-01 16:40:00,
2013-08-01 11:45:00,93.2,64.6,29.94,NW,312,4.0,14.0,39,0.00,,,0.00,meteohub,2013-08-01 16:45:00,
2013-08-01 11:53:00,93.7,64.2,29.94,WSW,244,11.0,14.0,38,0.00,,,0.00,meteohub,2013-08-01 16:53:00,
2013-08-01 11:59:00,94.1,63.9,29.94,WSW,242,8.0,13.0,37,0.00,,,0.00,meteohub,2013-08-01 16:59:00,
2013-08-01 12:06:00,94.3,64.0,29.94,SW,229,6.0,14.0,37,0.00,,,0.00,meteohub,2013-08-01 17:06:00,
2013-08-01 12:12:00,95.0,61.3,29.94,NW,324,0.0,14.0,33,0.00,,,0.00,meteohub,2013-08-01 17:12:00,
2013-08-01 12:21:00,95.4,61.7,29.94,WSW,250,3.0,12.0,33,0.00,,,0.00,meteohub,2013-08-01 17:21:00,
2013-08-01 12:26:00,95.7,61.2,29.94,WSW,254,7.0,15.0,32,0.00,,,0.00,meteohub,2013-08-01 17:26:00,
2013-08-01 12:31:00,95.7,61.2,29.93,West,273,6.0,15.0,32,0.00,,,0.00,meteohub,2013-08-01 17:31:00,
2013-08-01 12:37:00,96.3,61.5,29.93,West,269,6.0,13.0,32,0.00,,,0.00,meteohub,2013-08-01 17:37:00,
2013-08-01 12:47:00,96.4,61.7,29.93,WNW,285,0.0,11.0,32,0.00,,,0.00,meteohub,2013-08-01 17:47:00,
2013-08-01 12:54:00,96.6,61.0,29.92,West,271,11.0,11.0,31,0.00,,,0.00,meteohub,2013-08-01 17:54:00,
2013-08-01 13:01:00,96.6,61.0,29.92,WSW,247,11.0,11.0,31,0.00,,,0.00,meteohub,2013-08-01 18:01:00,
2013-08-01 13:07:00,97.0,61.3,29.92,WNW,290,1.0,13.0,31,0.00,,,0.00,meteohub,2013-08-01 18:07:00,
2013-08-01 13:13:00,97.0,60.4,29.92,WNW,290,0.0,13.0,30,0.00,,,0.00,meteohub,2013-08-01 18:13:00,
2013-08-01 13:18:00,97.3,60.8,29.91,NW,306,0.0,8.0,30,0.00,,,0.00,meteohub,2013-08-01 18:18:00,
2013-08-01 13:26:00,97.0,60.4,29.91,NNE,14,0.0,11.0,30,0.00,,,0.00,meteohub,2013-08-01 18:26:00,
2013-08-01 13:32:00,96.6,60.1,29.91,NW,315,10.0,11.0,30,0.00,,,0.00,meteohub,2013-08-01 18:32:00,
2013-08-01 13:37:00,96.4,59.9,29.91,NNW,343,0.0,12.0,30,0.00,,,0.00,meteohub,2013-08-01 18:37:00,
2013-08-01 13:42:00,96.8,60.3,29.90,NW,318,0.0,12.0,30,0.00,,,0.00,meteohub,2013-08-01 18:42:00,
2013-08-01 13:47:00,97.3,59.7,29.91,NNW,333,1.0,12.0,29,0.00,,,0.00,meteohub,2013-08-01 18:47:00,
2013-08-01 13:53:00,97.9,60.3,29.90,NNW,327,10.0,12.0,29,0.00,,,0.00,meteohub,2013-08-01 18:53:00,
2013-08-01 13:58:00,97.5,59.9,29.90,NW,325,6.0,10.0,29,0.00,,,0.00,meteohub,2013-08-01 18:58:00,
2013-08-01 14:06:00,97.2,59.5,29.89,NE,56,0.0,10.0,29,0.00,,,0.00,meteohub,2013-08-01 19:06:00,
2013-08-01 14:15:00,97.7,60.1,29.89,NW,323,4.0,10.0,29,0.00,,,0.00,meteohub,2013-08-01 19:15:00,
2013-08-01 14:20:00,97.9,59.2,29.89,NW,311,4.0,8.0,28,0.00,,,0.00,meteohub,2013-08-01 19:20:00,
2013-08-01 14:25:00,97.9,59.2,29.89,NW,313,6.0,8.0,28,0.00,,,0.00,meteohub,2013-08-01 19:25:00,
2013-08-01 14:33:00,97.5,59.0,29.88,NW,319,0.0,8.0,28,0.00,,,0.00,meteohub,2013-08-01 19:33:00,
2013-08-01 14:38:00,98.2,59.5,29.88,WNW,294,1.0,7.0,28,0.00,,,0.00,meteohub,2013-08-01 19:38:00,
2013-08-01 14:45:00,98.2,60.4,29.88,NW,306,0.0,7.0,29,0.00,,,0.00,meteohub,2013-08-01 19:45:00,
2013-08-01 14:50:00,98.2,59.5,29.88,North,349,0.0,5.0,28,0.00,,,0.00,meteohub,2013-08-01 19:50:00,
2013-08-01 14:55:00,98.4,59.7,29.88,NNW,341,0.0,4.0,28,0.00,,,0.00,meteohub,2013-08-01 19:55:00,
2013-08-01 15:02:00,98.4,60.6,29.88,ENE,57,0.0,4.0,29,0.00,,,0.00,meteohub,2013-08-01 20:02:00,
2013-08-01 15:07:00,98.8,61.0,29.88,ENE,57,2.0,4.0,29,0.00,,,0.00,meteohub,2013-08-01 20:07:00,
2013-08-01 15:12:00,98.6,60.8,29.87,ENE,57,0.0,4.0,29,0.00,,,0.00,meteohub,2013-08-01 20:12:00,
2013-08-01 15:18:00,98.6,60.8,29.87,ENE,57,0.0,4.0,29,0.00,,,0.00,meteohub,2013-08-01 20:18:00,
2013-08-01 15:24:00,99.1,61.3,29.87,NNE,28,3.0,4.0,29,0.00,,,0.00,meteohub,2013-08-01 20:24:00,
2013-08-01 15:30:00,98.4,60.6,29.87,ENE,65,0.0,5.0,29,0.00,,,0.00,meteohub,2013-08-01 20:30:00,
2013-08-01 15:37:00,98.8,61.9,29.87,ENE,65,2.0,6.0,30,0.00,,,0.00,meteohub,2013-08-01 20:37:00,
2013-08-01 15:41:00,99.9,61.0,29.87,ENE,65,0.0,6.0,28,0.00,,,0.00,meteohub,2013-08-01 20:41:00,
2013-08-01 15:47:00,100.4,62.4,29.86,ENE,68,3.0,4.0,29,0.00,,,0.00,meteohub,2013-08-01 20:47:00,
2013-08-01 15:52:00,100.2,62.2,29.86,NE,52,3.0,4.0,29,0.00,,,0.00,meteohub,2013-08-01 20:52:00,
2013-08-01 15:57:00,100.4,62.4,29.86,ENE,61,4.0,5.0,29,0.00,,,0.00,meteohub,2013-08-01 20:57:00,
2013-08-01 16:04:00,99.7,61.7,29.86,ENE,58,1.0,6.0,29,0.00,,,0.00,meteohub,2013-08-01 21:04:00,
2013-08-01 16:09:00,100.6,62.6,29.85,ENE,57,0.0,6.0,29,0.00,,,0.00,meteohub,2013-08-01 21:09:00,
2013-08-01 16:17:00,101.7,63.5,29.85,NE,51,3.0,3.0,29,0.00,,,0.00,meteohub,2013-08-01 21:17:00,
2013-08-01 16:22:00,101.3,62.1,29.85,NE,50,3.0,3.0,28,0.00,,,0.00,meteohub,2013-08-01 21:22:00,
2013-08-01 16:27:00,100.2,61.2,29.84,NW,324,4.0,6.0,28,0.00,,,0.00,meteohub,2013-08-01 21:27:00,
2013-08-01 16:33:00,100.0,61.2,29.84,NW,324,1.0,6.0,28,0.00,,,0.00,meteohub,2013-08-01 21:33:00,
2013-08-01 16:41:00,100.2,61.2,29.83,North,10,1.0,6.0,28,0.00,,,0.00,meteohub,2013-08-01 21:41:00,
2013-08-01 16:46:00,100.6,61.5,29.83,North,355,0.0,6.0,28,0.00,,,0.00,meteohub,2013-08-01 21:46:00,
2013-08-01 16:53:00,100.9,61.9,29.83,NNW,327,1.0,6.0,28,0.00,,,0.00,meteohub,2013-08-01 21:53:00,
2013-08-01 17:01:00,101.1,63.0,29.83,NW,326,1.0,6.0,29,0.00,,,0.00,meteohub,2013-08-01 22:01:00,
2013-08-01 17:07:00,101.7,62.4,29.83,SE,138,1.0,10.0,28,0.00,,,0.00,meteohub,2013-08-01 22:07:00,
2013-08-01 17:12:00,101.8,62.6,29.83,SE,132,6.0,10.0,28,0.00,,,0.00,meteohub,2013-08-01 22:12:00,
2013-08-01 17:17:00,102.0,61.7,29.82,SSW,206,0.0,6.0,27,0.00,,,0.00,meteohub,2013-08-01 22:17:00,
2013-08-01 17:22:00,102.0,61.7,29.82,SSW,205,2.0,10.0,27,0.00,,,0.00,meteohub,2013-08-01 22:22:00,
2013-08-01 17:27:00,102.6,62.2,29.82,SW,217,7.0,7.0,27,0.00,,,0.00,meteohub,2013-08-01 22:27:00,
2013-08-01 17:35:00,102.4,63.1,29.82,SW,229,0.0,6.0,28,0.00,,,0.00,meteohub,2013-08-01 22:35:00,
2013-08-01 17:41:00,102.0,63.7,29.81,South,175,0.0,8.0,29,0.00,,,0.00,meteohub,2013-08-01 22:41:00,
2013-08-01 17:46:00,101.5,63.3,29.81,ESE,116,4.0,8.0,29,0.00,,,0.00,meteohub,2013-08-01 22:46:00,
2013-08-01 17:52:00,100.9,62.8,29.81,SE,141,7.0,8.0,29,0.00,,,0.00,meteohub,2013-08-01 22:52:00,
2013-08-01 17:56:00,100.6,62.6,29.82,South,170,2.0,12.0,29,0.00,,,0.00,meteohub,2013-08-01 22:56:00,
2013-08-01 18:02:00,100.6,63.5,29.81,SSE,150,6.0,12.0,30,0.00,,,0.00,meteohub,2013-08-01 23:02:00,
2013-08-01 18:07:00,100.2,63.1,29.81,SSW,200,1.0,12.0,30,0.00,,,0.00,meteohub,2013-08-01 23:07:00,
2013-08-01 18:12:00,100.2,62.2,29.81,SE,138,1.0,12.0,29,0.00,,,0.00,meteohub,2013-08-01 23:12:00,
2013-08-01 18:18:00,100.2,63.1,29.81,SSE,147,8.0,10.0,30,0.00,,,0.00,meteohub,2013-08-01 23:18:00,
2013-08-01 18:25:00,100.0,63.0,29.81,SSE,157,1.0,10.0,30,0.00,,,0.00,meteohub,2013-08-01 23:25:00,
2013-08-01 18:32:00,100.4,63.3,29.81,ESE,121,1.0,10.0,30,0.00,,,0.00,meteohub,2013-08-01 23:32:00,
2013-08-01 18:42:00,100.4,63.3,29.81,SSE,165,0.0,9.0,30,0.00,,,0.00,meteohub,2013-08-01 23:42:00,
2013-08-01 18:47:00,100.4,63.3,29.81,SE,140,7.0,9.0,30,0.00,,,0.00,meteohub,2013-08-01 23:47:00,
2013-08-01 18:51:00,100.0,63.0,29.81,SSW,194,2.0,9.0,30,0.00,,,0.00,meteohub,2013-08-01 23:51:00,
2013-08-01 19:00:00,99.9,63.0,29.81,SE,124,5.0,9.0,30,0.00,,,0.00,meteohub,2013-08-02 00:00:00,
2013-08-01 19:06:00,99.3,63.3,29.81,SE,144,4.0,9.0,31,0.00,,,0.00,meteohub,2013-08-02 00:06:00,
2013-08-01 19:11:00,98.8,63.9,29.81,SSE,152,0.0,8.0,32,0.00,,,0.00,meteohub,2013-08-02 00:11:00,
2013-08-01 19:17:00,98.2,62.4,29.81,SSE,156,0.0,11.0,31,0.00,,,0.00,meteohub,2013-08-02 00:17:00,
2013-08-01 19:22:00,98.1,63.1,29.81,SE,137,0.0,11.0,32,0.00,,,0.00,meteohub,2013-08-02 00:22:00,
2013-08-01 19:26:00,98.1,63.1,29.81,SE,136,0.0,11.0,32,0.00,,,0.00,meteohub,2013-08-02 00:26:00,
2013-08-01 19:32:00,97.9,63.0,29.81,SE,146,0.0,8.0,32,0.00,,,0.00,meteohub,2013-08-02 00:32:00,
2013-08-01 19:37:00,97.5,63.5,29.81,SE,140,6.0,10.0,33,0.00,,,0.00,meteohub,2013-08-02 00:37:00,
2013-08-01 19:42:00,97.2,63.3,29.81,SSE,155,6.0,10.0,33,0.00,,,0.00,meteohub,2013-08-02 00:42:00,
2013-08-01 19:46:00,96.8,63.0,29.81,ESE,123,0.0,7.0,33,0.00,,,0.00,meteohub,2013-08-02 00:46:00,
2013-08-01 19:52:00,96.6,63.7,29.81,ESE,123,0.0,7.0,34,0.00,,,0.00,meteohub,2013-08-02 00:52:00,
2013-08-01 19:57:00,96.4,63.5,29.82,ESE,123,0.0,7.0,34,0.00,,,0.00,meteohub,2013-08-02 00:57:00,
2013-08-01 20:03:00,96.4,63.5,29.82,ESE,123,0.0,2.0,34,0.00,,,0.00,meteohub,2013-08-02 01:03:00,
2013-08-01 20:10:00,96.3,63.3,29.82,ESE,123,0.0,0.0,34,0.00,,,0.00,meteohub,2013-08-02 01:10:00,
2013-08-01 20:17:00,95.7,63.7,29.81,ESE,123,0.0,0.0,35,0.00,,,0.00,meteohub,2013-08-02 01:17:00,
2013-08-01 20:21:00,95.4,63.3,29.82,ESE,123,0.0,0.0,35,0.00,,,0.00,meteohub,2013-08-02 01:21:00,
2013-08-01 20:30:00,95.0,63.1,29.82,ESE,123,0.0,0.0,35,0.00,,,0.00,meteohub,2013-08-02 01:30:00,
2013-08-01 20:36:00,94.6,63.5,29.82,ESE,123,0.0,0.0,36,0.00,,,0.00,meteohub,2013-08-02 01:36:00,
2013-08-01 20:42:00,93.7,63.5,29.82,ESE,123,0.0,0.0,37,0.00,,,0.00,meteohub,2013-08-02 01:42:00,
2013-08-01 20:47:00,93.6,64.2,29.82,ESE,123,0.0,0.0,38,0.00,,,0.00,meteohub,2013-08-02 01:47:00,
2013-08-01 20:53:00,92.8,63.5,29.82,NNW,336,0.0,0.0,38,0.00,,,0.00,meteohub,2013-08-02 01:53:00,
2013-08-01 21:00:00,92.1,64.4,29.82,NNW,336,0.0,0.0,40,0.00,,,0.00,meteohub,2013-08-02 02:00:00,
2013-08-01 21:06:00,91.4,64.4,29.82,NNW,336,0.0,0.0,41,0.00,,,0.00,meteohub,2013-08-02 02:06:00,
2013-08-01 21:12:00,90.7,64.4,29.81,South,186,0.0,0.0,42,0.00,,,0.00,meteohub,2013-08-02 02:12:00,
2013-08-01 21:17:00,90.3,64.0,29.81,SSE,163,0.0,0.0,42,0.00,,,0.00,meteohub,2013-08-02 02:17:00,
2013-08-01 21:22:00,90.0,64.4,29.82,SSE,163,0.0,0.0,43,0.00,,,0.00,meteohub,2013-08-02 02:22:00,
2013-08-01 21:27:00,89.6,64.2,29.82,SSE,163,0.0,0.0,43,0.00,,,0.00,meteohub,2013-08-02 02:27:00,
2013-08-01 21:32:00,89.2,63.9,29.82,SSE,163,0.0,0.0,43,0.00,,,0.00,meteohub,2013-08-02 02:32:00,
2013-08-01 21:37:00,89.1,63.7,29.83,SSE,163,0.0,0.0,43,0.00,,,0.00,meteohub,2013-08-02 02:37:00,
2013-08-01 21:42:00,88.9,64.2,29.83,SSE,163,0.0,0.0,44,0.00,,,0.00,meteohub,2013-08-02 02:42:00,
2013-08-01 21:47:00,88.5,63.9,29.82,SSE,163,0.0,0.0,44,0.00,,,0.00,meteohub,2013-08-02 02:47:00,
2013-08-01 21:52:00,88.3,63.7,29.82,SSE,163,0.0,0.0,44,0.00,,,0.00,meteohub,2013-08-02 02:52:00,
2013-08-01 21:57:00,88.2,64.2,29.83,SSE,163,0.0,0.0,45,0.00,,,0.00,meteohub,2013-08-02 02:57:00,
2013-08-01 22:01:00,87.8,63.9,29.83,SSE,163,0.0,0.0,45,0.00,,,0.00,meteohub,2013-08-02 03:01:00,
2013-08-01 22:06:00,87.6,63.7,29.83,SSE,163,0.0,0.0,45,0.00,,,0.00,meteohub,2013-08-02 03:06:00,
2013-08-01 22:12:00,87.4,64.8,29.83,SSE,163,0.0,0.0,47,0.00,,,0.00,meteohub,2013-08-02 03:12:00,
2013-08-01 22:17:00,87.1,64.9,29.83,SSE,163,0.0,0.0,48,0.00,,,0.00,meteohub,2013-08-02 03:17:00,
2013-08-01 22:22:00,86.7,64.8,29.84,SSE,163,0.0,0.0,48,0.00,,,0.00,meteohub,2013-08-02 03:22:00,
2013-08-01 22:28:00,86.5,64.6,29.84,SSE,163,0.0,0.0,48,0.00,,,0.00,meteohub,2013-08-02 03:28:00,
2013-08-01 22:35:00,86.2,64.2,29.84,SSE,163,0.0,0.0,48,0.00,,,0.00,meteohub,2013-08-02 03:35:00,
2013-08-01 22:40:00,86.0,64.0,29.84,SSE,163,0.0,0.0,48,0.00,,,0.00,meteohub,2013-08-02 03:40:00,
2013-08-01 22:47:00,85.6,64.9,29.84,SSE,163,0.0,0.0,50,0.00,,,0.00,meteohub,2013-08-02 03:47:00,
2013-08-01 22:52:00,85.5,64.8,29.84,SSE,163,0.0,0.0,50,0.00,,,0.00,meteohub,2013-08-02 03:52:00,
2013-08-01 22:57:00,85.3,64.6,29.83,SSE,163,0.0,0.0,50,0.00,,,0.00,meteohub,2013-08-02 03:57:00,
2013-08-01 23:01:00,85.3,65.1,29.84,SSE,163,0.0,0.0,51,0.00,,,0.00,meteohub,2013-08-02 04:01:00,
2013-08-01 23:02:00,85.1,64.9,29.83,SSE,163,0.0,0.0,51,0.00,,,0.00,meteohub,2013-08-02 04:02:00,
2013-08-01 23:07:00,84.9,64.2,29.83,SSE,163,0.0,0.0,50,0.00,,,0.00,meteohub,2013-08-02 04:07:00,
2013-08-01 23:12:00,84.7,64.0,29.83,SSE,163,0.0,0.0,50,0.00,,,0.00,meteohub,2013-08-02 04:12:00,
2013-08-01 23:17:00,84.7,64.6,29.84,SSE,163,0.0,0.0,51,0.00,,,0.00,meteohub,2013-08-02 04:17:00,
2013-08-01 23:22:00,84.6,64.4,29.83,SSE,163,0.0,0.0,51,0.00,,,0.00,meteohub,2013-08-02 04:22:00,
2013-08-01 23:27:00,84.6,63.9,29.83,SSE,163,0.0,0.0,50,0.00,,,0.00,meteohub,2013-08-02 04:27:00,
2013-08-01 23:32:00,84.4,63.7,29.83,SSE,163,0.0,0.0,50,0.00,,,0.00,meteohub,2013-08-02 04:32:00,
2013-08-01 23:37:00,84.4,63.7,29.83,SSE,163,0.0,0.0,50,0.00,,,0.00,meteohub,2013-08-02 04:37:00,
2013-08-01 23:42:00,84.4,63.7,29.83,SSE,162,1.0,2.0,50,0.00,,,0.00,meteohub,2013-08-02 04:42:00,
2013-08-01 23:47:00,84.6,63.3,29.83,SE,145,1.0,2.0,49,0.00,,,0.00,meteohub,2013-08-02 04:47:00,
2013-08-01 23:52:00,84.7,63.5,29.83,SE,131,1.0,7.0,49,0.00,,,0.00,meteohub,2013-08-02 04:52:00,
2013-08-01 23:57:00,84.9,64.2,29.83,SE,135,0.0,7.0,50,0.00,,,0.00,meteohub,2013-08-02 04:57:00,